Find Kosmos-994

NORAD ID: 10731 Int'l Des: 1978-028 Owner: VMF Country: SU operational
LEOCIRCULARPOLAR

現在のビュー

3D地球を読み込み中...

About Kosmos-994

Kosmos-994 (NORAD 10731) is a satellite launched Mar 15, 1978 by VMF of SU. It operates in LEO, CIRCULAR, POLAR orbit with a mass of 800.00 kg.

次回通過

Passes for default location (London). Set your location on the main map for personalized predictions.

高度履歴

Loading altitude history...

軌道要素

1 10731U 78028A 26194.53692973 .00000027 00000-0 12257-4 0 9993
2 10731 82.9324 355.3293 0022806 189.7633 234.0524 13.73429522421428
Epoch: Jul 13, 2026 • Age: 14 hours

現在のステータス

高度 1011.1 km
遠地点 / 近地点 N/A
速度 7.34 km/s
衛星直下点 -27.10°S, 22.84°E
打ち上げ日 Mar 15, 1978
運用期間 48.3 years
タイプ other

技術仕様

分類 Payload
質量 800.00 kg
乾燥質量 800.00 kg
総質量 800.00 kg
長さ 5.00 m
直径 2.10 m
スパン 17.00 m
形状 Cyl + Ant
製造者 NPOPM
バスタイプ KAUR-1 11F617
フェーズステータス In Orbit
所有者/国 VMF/SU

Most Searched